Retour au catalogue

THORAD DELTA 1 DEB

ActifSSO
NORAD 8786·DEBRIS·🇺🇸 United States

Lancé Nov 15, 1974 depuis Vandenberg Space Force Base

Loading…

Prochains Passages (prochaines 24 heures)

TLE

FraisSource: Space-Track

Époque: Sep 13, 2026, 01:11 UTC

1 08786U 74089DN  26256.04982047  .00000021  00000-0  46240-3 0  9994
2 08786 101.9421 355.2761 0054170 193.7426 341.7355 12.44443473351145

Suivez THORAD DELTA 1 DEB en temps réel avec AllMySat

Download on the App Store